MST,Max TemperatureF,Mean TemperatureF,Min TemperatureF,Max Dew PointF,MeanDew PointF,Min DewpointF,Max Humidity, Mean Humidity, Min Humidity, Max Sea Level PressureIn, Mean Sea Level PressureIn, Min Sea Level PressureIn, Max VisibilityMiles, Mean VisibilityMiles, Min VisibilityMiles, Max Wind SpeedMPH, Mean Wind SpeedMPH, Max Gust SpeedMPH,PrecipitationIn, CloudCover, Events, WindDirDegrees
2013-1-1,17,-2,-22,9,-8,-27,92,78,68,30.19,30.11,30.01,10,9,0,25,4,33,0.00,1,Snow,333
2013-1-2,14,-2,-18,5,-12,-26,92,78,62,30.29,30.22,30.17,10,10,1,8,3,,0.00,0,,299
2013-1-3,21,2,-18,3,-12,-24,85,74,42,30.32,30.30,30.27,10,10,7,7,4,,0.00,0,,297
2013-1-4,17,0,-18,5,-9,-26,92,75,53,30.27,30.19,30.13,10,10,1,7,2,,0.00,0,,351
2013-1-5,19,2,-14,5,-9,-18,92,76,49,30.29,30.25,30.17,10,10,10,8,3,,0.00,0,Snow,324
2013-1-6,19,4,-11,10,-4,-15,100,76,53,30.27,30.12,30.02,10,10,10,9,5,,0.00,1,,302
2013-1-7,23,5,-13,18,0,-17,100,80,58,30.07,30.01,29.92,10,10,10,15,5,20,0.00,1,,303
2013-1-8,30,21,12,21,18,12,100,85,69,30.33,30.10,29.95,10,10,10,15,7,,0.00,5,Snow,303
2013-1-9,30,16,3,21,11,1,100,88,64,30.35,30.19,29.92,10,9,0,9,3,,0.00,3,Fog,312
2013-1-10,32,20,8,27,18,5,100,84,60,29.88,29.59,29.37,10,8,0,18,5,24,0.00,6,Snow,122
2013-1-11,23,12,0,23,8,-4,100,84,67,29.75,29.49,29.30,10,5,0,29,16,36,0.00,8,Snow,288
2013-1-12,5,-6,-18,-4,-13,-24,92,79,66,29.87,29.82,29.75,10,7,2,8,3,,0.00,6,Snow,296
2013-1-13,5,-12,-29,-6,-17,-35,85,77,61,29.97,29.91,29.85,10,8,3,8,3,,0.00,4,Snow,296
2013-1-14,-2,-16,-31,-9,-23,-36,84,74,60,30.05,29.99,29.95,10,10,5,9,5,,0.00,2,Snow,97
2013-1-15,19,2,-14,12,-6,-18,92,77,66,30.28,30.16,30.03,10,10,5,23,5,26,0.00,1,,85
2013-1-16,30,13,-4,14,7,-6,92,70,51,30.38,30.31,30.22,10,9,3,31,12,37,0.00,1,,343
2013-1-17,24,10,-5,12,2,-8,92,76,50,30.47,30.41,30.35,10,10,10,9,3,,0.00,1,,360
2013-1-18,30,12,-7,18,0,-11,92,77,51,30.35,30.29,30.23,10,10,10,12,5,,0.00,1,,305
2013-1-19,33,14,-5,16,3,-9,92,74,44,30.39,30.32,30.27,10,10,10,13,6,,0.00,1,,294
2013-1-20,32,14,-5,14,4,-9,85,69,47,30.33,30.28,30.25,10,10,10,16,6,,0.00,1,,299
2013-1-21,33,16,0,18,8,-4,92,67,41,30.30,30.26,30.23,10,10,10,14,6,,0.00,0,,297
2013-1-22,33,14,-4,16,1,-9,92,72,44,30.31,30.27,30.24,10,10,10,12,7,,0.00,1,,304
2013-1-23,26,10,-5,12,2,-11,93,72,46,30.32,30.26,30.20,10,10,10,10,6,,0.00,0,,297
2013-1-24,32,18,5,30,18,1,100,83,69,30.27,30.20,30.16,10,9,2,8,3,,0.00,7,Snow,291
2013-1-25,35,24,12,28,23,12,100,87,60,30.27,30.21,30.11,10,10,7,8,3,,0.00,7,,293
2013-1-26,35,27,19,30,27,19,100,94,75,30.12,29.96,29.82,10,9,4,9,2,,0.00,5,,110
2013-1-27,32,22,12,32,26,10,100,97,80,29.82,29.72,29.61,10,6,0,18,5,24,0.00,7,Fog-Snow,167
2013-1-28,21,8,-5,12,5,-9,92,79,58,29.79,29.75,29.71,10,10,2,21,8,24,0.00,2,,293
2013-1-29,19,6,-7,10,-2,-13,92,78,58,29.96,29.80,29.70,10,10,4,17,7,22,0.00,5,Snow,297
2013-1-30,28,12,-4,23,15,-8,100,86,74,29.99,29.94,29.90,10,9,2,28,10,32,0.00,5,Snow,307
2013-1-31,30,24,17,23,20,16,100,82,69,30.18,30.13,29.99,10,10,3,24,16,30,0.00,4,Snow,301